Flag for Finland Weather past 2 weeks in Jyväskylä, Finland

Now
34 °F

Light snow. Low clouds.


Feels Like: 26 °F
Forecast: 29 / 34 °F
Wind: 10 mph from Southeast

Location: Jyvaskyla Airport

Current Time: Mar 2, 2015 at 5:47:53 PM

Latest Report: Mar 2, 2015 at 5:20 PM


Visibility: N/A

Pressure: 29.45 "Hg

Humidity: 93%

Dew point: 32 °F

Location of JyväskyläLocation

Historic Weather in Jyväskylä — Graph

°F

Jyväskylä temperature yesterday

Maximum temperature yesterday: 36 °F (at 2:50 PM)
Minimum temperature yesterday: 32 °F (at 12:20 AM)
Average temperature yesterday: 34 °F

Past Weeks' High & Low Weather Summary

 TemperatureHumidityPressure
High39 °F (Feb 19, 9:20 PM)100% (Feb 18, 5:20 AM)30.77 "Hg (Feb 18, 5:20 AM)
Low-6 °F (Feb 16, 12:50 AM)50% (Feb 16, 1:20 PM)29.06 "Hg (Feb 22, 9:50 AM)
Average31 °F90%29.78 "Hg
* Reported Feb 15 4:20 PM — Mar 2 4:20 PM, Jyväskylä, Weather by CustomWeather, © 2015

Note: Actual official high and low records may vary slightly from our data, if they occured in-between our weather recording intervals... More about our weather records

Advertising

Jyväskylä weather history for previous 24 hours

 ConditionsComfort  
Time TempWeatherWind HumidityBarometerVisibility
4:20 PM
Mon, Mar 2
34 °FLight mixture of precip. Low clouds.9 mph93%29.45 "HgN/A
3:50 PM34 °FLight rain. Low clouds.13 mph93%29.45 "HgN/A
3:20 PM34 °FLight rain. Partly sunny.12 mph93%29.45 "Hg6 mi
2:50 PM34 °FLight rain. Partly sunny.13 mph100%29.45 "Hg5 mi
2:20 PM34 °FLight rain. Partly sunny.12 mph100%29.45 "Hg6 mi
1:50 PM34 °FLight rain. Partly sunny.13 mph100%29.45 "Hg6 mi
1:20 PM34 °FLight rain. Partly sunny.14 mph100%29.45 "HgN/A
12:50 PM34 °FLight rain. Partly sunny.14 mph93%29.45 "Hg2 mi
12:20 PM34 °FDrizzle. Partly sunny.15 mph93%29.45 "HgN/A
11:50 AM34 °FDrizzle. Low clouds.12 mph93%29.47 "HgN/A
11:20 AM34 °FDrizzle. Low clouds.14 mph93%29.47 "Hg6 mi
10:50 AM34 °FDrizzle. Low clouds.13 mph93%29.45 "Hg5 mi
10:20 AM34 °FLight rain. Low clouds.15 mph93%29.45 "Hg4 mi
9:50 AM34 °FDrizzle. Partly sunny.14 mph93%29.47 "Hg3 mi
9:20 AM34 °FDrizzle. Low clouds.13 mph93%29.47 "Hg4 mi
8:50 AM34 °FLow clouds.15 mph93%29.47 "HgN/A
8:20 AM34 °FOvercast.15 mph93%29.47 "HgN/A
7:50 AM34 °FOvercast.15 mph93%29.47 "HgN/A
7:20 AM34 °FOvercast.15 mph93%29.47 "HgN/A
6:50 AM34 °FOvercast.14 mph87%29.47 "HgN/A
6:20 AM34 °FOvercast.17 mph87%29.47 "HgN/A
5:50 AM34 °FMostly cloudy.12 mph87%29.50 "HgN/A
5:20 AM34 °FOvercast.12 mph87%29.47 "HgN/A
4:50 AM32 °FPassing clouds.14 mph93%29.50 "HgN/A
4:20 AM34 °FPartly cloudy.12 mph87%29.50 "HgN/A
3:50 AM34 °FPassing clouds.12 mph87%29.53 "HgN/A
3:20 AM34 °FPassing clouds.10 mph93%29.53 "HgN/A
2:50 AM34 °FPassing clouds.10 mph87%29.53 "HgN/A
2:20 AM34 °FPassing clouds.9 mph87%29.56 "HgN/A
1:50 AM34 °FPassing clouds.12 mph87%29.56 "HgN/A
1:20 AM34 °FOvercast.9 mph93%29.56 "HgN/A
12:50 AM34 °FOvercast.9 mph93%29.56 "HgN/A
12:20 AM34 °FLow clouds.12 mph93%29.56 "HgN/A
11:50 PM
Sun, Mar 1
34 °FSprinkles. Low clouds.13 mph93%29.59 "HgN/A
11:20 PM34 °FSprinkles. Low clouds.13 mph93%29.59 "HgN/A
10:50 PM34 °FLow clouds.14 mph93%29.59 "HgN/A
10:20 PM34 °FMostly cloudy.12 mph93%29.59 "HgN/A
9:20 PM34 °FLow clouds.15 mph93%29.62 "Hg5 mi
8:50 PM34 °FLow clouds.13 mph93%29.62 "Hg4 mi
8:20 PM34 °FLow clouds.14 mph93%29.62 "Hg6 mi
7:50 PM34 °FLow clouds.16 mph93%29.62 "Hg6 mi
7:20 PM34 °FLow clouds.15 mph93%29.62 "HgN/A
6:50 PM34 °FLow clouds.15 mph93%29.65 "HgN/A
6:20 PM34 °FOvercast.13 mph93%29.65 "HgN/A
5:20 PM34 °FOvercast.16 mph87%29.65 "HgN/A
Weather by CustomWeather, © 2015

See weather overviewHow to use our weather pages